| time (UTC) | temp C | wind direction | speed KPH | gust KPH | rain 1hr cm | rain 24hr cm | rain mn cm | humidity % | barometer mb |
| 20260505092125 | 11 | 219 | 8.0 | 16.1 | 0.00 | 0.00 | 0.00 | 86 | 1013.2 |
| 20260505090624 | 11 | 219 | 8.0 | 17.7 | 0.00 | 0.00 | 0.00 | 86 | 1013.2 |
| 20260505085125 | 11 | 215 | 8.0 | 22.5 | 0.00 | 0.00 | 0.00 | 86 | 1013.1 |
| 20260505083624 | 12 | 216 | 8.0 | 19.3 | 0.00 | 0.00 | 0.00 | 86 | 1013.2 |
| 20260505082124 | 12 | 216 | 8.0 | 19.3 | 0.00 | 0.00 | 0.00 | 85 | 1013.3 |
| 20260505080624 | 12 | 221 | 9.7 | 25.7 | 0.00 | 0.00 | 0.00 | 85 | 1013.3 |
| 20260505075125 | 12 | 215 | 9.7 | 22.5 | 0.00 | 0.00 | 0.00 | 85 | 1013.3 |
| 20260505073624 | 12 | 212 | 8.0 | 20.9 | 0.00 | 0.00 | 0.00 | 85 | 1013.3 |
| 20260505072124 | 12 | 213 | 8.0 | 17.7 | 0.00 | 0.00 | 0.00 | 85 | 1013.3 |
| 20260505070625 | 12 | 219 | 9.7 | 20.9 | 0.00 | 0.00 | 0.00 | 85 | 1013.4 |
| 20260505065124 | 12 | 219 | 8.0 | 19.3 | 0.00 | 0.00 | 0.00 | 85 | 1013.4 |
| 20260505063625 | 12 | 217 | 8.0 | 19.3 | 0.00 | 0.00 | 0.00 | 85 | 1013.4 |
| 20260505062125 | 12 | 218 | 8.0 | 20.9 | 0.00 | 0.00 | 0.00 | 85 | 1013.3 |
| 20260505060624 | 12 | 218 | 9.7 | 22.5 | 0.00 | 0.00 | 0.00 | 84 | 1013.3 |
| 20260505055124 | 12 | 221 | 8.0 | 24.1 | 0.00 | 0.00 | 0.00 | 84 | 1013.3 |
| 20260505053625 | 12 | 216 | 9.7 | 20.9 | 0.00 | 0.00 | 0.00 | 84 | 1013.4 |
| 20260505052125 | 11 | 219 | 8.0 | 20.9 | 0.00 | 0.00 | 0.00 | 83 | 1013.4 |
| 20260505050625 | 12 | 222 | 6.4 | 20.9 | 0.00 | 0.00 | 0.00 | 83 | 1013.5 |
| 20260505040625 | 12 | 229 | 8.0 | 22.5 | 0.00 | 0.00 | 0.00 | 81 | 1013.7 |
| 20260505035124 | 12 | 229 | 9.7 | 17.7 | 0.00 | 0.00 | 0.00 | 81 | 1013.9 |
| 20260505033625 | 12 | 233 | 9.7 | 20.9 | 0.00 | 0.00 | 0.00 | 80 | 1013.8 |
| 20260505032125 | 12 | 231 | 11.3 | 25.7 | 0.00 | 0.00 | 0.00 | 80 | 1013.8 |
| 20260505030625 | 12 | 231 | 11.3 | 27.4 | 0.00 | 0.00 | 0.00 | 80 | 1013.8 |
| 20260505025126 | 12 | 233 | 11.3 | 27.4 | 0.00 | 0.00 | 0.00 | 79 | 1013.9 |
| 20260505023625 | 12 | 229 | 12.9 | 27.4 | 0.00 | 0.00 | 0.00 | 79 | 1013.8 |
| 20260505022124 | 12 | 233 | 11.3 | 29.0 | 0.00 | 0.00 | 0.00 | 78 | 1013.8 |
| 20260505020624 | 12 | 233 | 12.9 | 30.6 | 0.00 | 0.00 | 0.00 | 77 | 1013.7 |
| 20260505015126 | 12 | 237 | 12.9 | 30.6 | 0.00 | 0.00 | 0.00 | 76 | 1013.7 |
| 20260505013625 | 12 | 230 | 11.3 | 25.7 | 0.00 | 0.00 | 0.00 | 75 | 1013.3 |
| 20260505012126 | 12 | 228 | 12.9 | 30.6 | 0.00 | 0.00 | 0.00 | 73 | 1013.1 |
| 20260505010625 | 12 | 227 | 12.9 | 33.8 | 0.00 | 0.00 | 0.00 | 73 | 1012.9 |
| 20260505005126 | 12 | 223 | 12.9 | 30.6 | 0.00 | 0.00 | 0.00 | 70 | 1012.7 |
| 20260505003625 | 13 | 226 | 14.5 | 32.2 | 0.00 | 0.00 | 0.00 | 68 | 1012.5 |
| 20260505002124 | 13 | 234 | 12.9 | 37.0 | 0.00 | 0.00 | 0.00 | 68 | 1012.2 |
| 20260505000624 | 13 | 233 | 14.5 | 30.6 | 0.00 | 0.00 | 0.00 | 67 | 1012.0 |
| 20260504235125 | 13 | 231 | 12.9 | 33.8 | 0.00 | 0.00 | 0.00 | 67 | 1011.9 |
| 20260504233625 | 13 | 224 | 12.9 | 29.0 | 0.00 | 0.00 | 0.00 | 67 | 1011.7 |
| 20260504232126 | 13 | 229 | 16.1 | 33.8 | 0.00 | 0.00 | 0.00 | 66 | 1011.6 |
| 20260504230624 | 14 | 224 | 14.5 | 32.2 | 0.00 | 0.00 | 0.00 | 66 | 1011.4 |
| 20260504225125 | 14 | 226 | 14.5 | 38.6 | 0.00 | 0.00 | 0.00 | 65 | 1011.4 |
| 20260504223626 | 14 | 221 | 14.5 | 35.4 | 0.00 | 0.00 | 0.00 | 65 | 1011.2 |
| 20260504222126 | 15 | 218 | 16.1 | 38.6 | 0.00 | 0.00 | 0.00 | 64 | 1011.2 |
| 20260504220625 | 15 | 224 | 14.5 | 29.0 | 0.00 | 0.00 | 0.00 | 64 | 1011.3 |
| 20260504215126 | 15 | 221 | 16.1 | 33.8 | 0.00 | 0.00 | 0.00 | 63 | 1011.3 |
| 20260504213625 | 16 | 221 | 14.5 | 38.6 | 0.00 | 0.00 | 0.00 | 61 | 1011.4 |
| 20260504212126 | 16 | 228 | 16.1 | 40.2 | 0.00 | 0.00 | 0.00 | 59 | 1011.4 |
| 20260504210625 | 17 | 229 | 14.5 | 35.4 | 0.00 | 0.00 | 0.00 | 56 | 1011.4 |
| 20260504205126 | 17 | 229 | 14.5 | 37.0 | 0.00 | 0.00 | 0.00 | 53 | 1011.3 |
| 20260504203625 | 17 | 231 | 14.5 | 43.5 | 0.00 | 0.00 | 0.00 | 50 | 1011.1 |
| 20260504202124 | 17 | 229 | 16.1 | 38.6 | 0.00 | 0.00 | 0.00 | 51 | 1010.9 |
| 20260504200625 | 18 | 235 | 14.5 | 38.6 | 0.00 | 0.00 | 0.00 | 50 | 1011.0 |
| 20260504195126 | 18 | 236 | 16.1 | 35.4 | 0.00 | 0.00 | 0.00 | 51 | 1011.1 |
| 20260504193625 | 18 | 243 | 17.7 | 35.4 | 0.00 | 0.00 | 0.00 | 55 | 1010.8 |
| 20260504192127 | 18 | 242 | 16.1 | 37.0 | 0.00 | 0.00 | 0.00 | 52 | 1010.9 |
| 20260504190626 | 18 | 243 | 17.7 | 35.4 | 0.00 | 0.00 | 0.00 | 54 | 1011.2 |
| 20260504185126 | 18 | 243 | 16.1 | 35.4 | 0.00 | 0.00 | 0.00 | 56 | 1011.1 |
| 20260504183626 | 19 | 245 | 16.1 | 35.4 | 0.00 | 0.00 | 0.00 | 52 | 1011.0 |
| 20260504182126 | 19 | 240 | 19.3 | 40.2 | 0.00 | 0.00 | 0.00 | 52 | 1010.8 |
| 20260504180625 | 18 | 243 | 17.7 | 40.2 | 0.00 | 0.00 | 0.00 | 52 | 1010.7 |
| 20260504175125 | 18 | 244 | 16.1 | 41.8 | 0.00 | 0.00 | 0.00 | 50 | 1010.7 |
| 20260504173625 | 18 | 241 | 17.7 | 40.2 | 0.00 | 0.00 | 0.00 | 51 | 1011.0 |
| 20260504172126 | 18 | 245 | 14.5 | 30.6 | 0.00 | 0.00 | 0.00 | 54 | 1011.1 |
| 20260504170625 | 18 | 245 | 17.7 | 41.8 | 0.00 | 0.00 | 0.00 | 54 | 1011.2 |
| 20260504150627 | 17 | 244 | 12.9 | 29.0 | 0.00 | 0.00 | 0.00 | 62 | 1012.1 |
| 20260504140626 | 16 | 254 | 9.7 | 25.7 | 0.00 | 0.00 | 0.00 | 61 | 1012.6 |
| 20260504130627 | 14 | 239 | 11.3 | 22.5 | 0.00 | 0.00 | 0.00 | 69 | 1012.7 |
| 20260504110626 | 11 | 239 | 8.0 | 20.9 | 0.00 | 0.00 | 0.00 | 75 | 1012.9 |